RH
83 81 79 82 82 65 50 50 52 54 56 57 60 64 66 67 66 65 70 76 76 73 73 73 75 77 77 80 80 79 78 77 75 75 74 73 73 74 74 74 75 75
82 80 80 85 79 60 49 49 51 53 55 56 60 65 67 67 66 67 73 77 74 71 72 74 77 76 75 77 77 75 75 74 73 73 74 73 72 73 74 74 75 75
82 81 82 86 77 58 49 50 51 53 55 58 63 66 68 67 66 68 72 74 71 69 70 74 77 75 72 73 74 74 74 72 72 71 72 73 73 73 74 74 75 74
82 82 83 86 77 59 51 51 53 54 56 60 64 66 68 67 66 68 70 70 68 67 70 74 76 75 72 73 73 73 73 72 72 72 72 73 74 75 75 76 76 75
81 83 85 85 75 59 52 51 52 55 58 59 62 66 68 65 64 67 67 66 66 67 69 70 71 71 70 72 73 72 71 70 70 72 74 75 76 77 78 78 78 76
83 85 87 82 69 57 51 50 52 56 57 57 61 66 63 61 64 66 65 66 66 66 64 62 62 62 63 66 68 68 67 65 66 71 74 75 76 79 80 80 79 78
86 86 85 74 61 53 50 50 53 56 55 55 61 62 57 59 65 66 64 66 66 65 61 58 58 59 58 60 62 62 62 62 63 66 68 69 71 73 75 78 80 80
86 86 82 69 58 53 51 52 55 55 53 56 61 58 55 59 65 66 65 66 66 65 62 59 59 60 59 61 62 61 62 63 63 64 63 63 65 65 67 72 78 80
87 86 80 69 61 55 51 52 56 55 53 55 59 58 57 59 61 62 64 64 65 65 63 60 60 60 60 61 63 63 64 64 64 64 63 62 62 63 64 68 74 78
86 85 78 68 60 54 50 51 54 54 51 54 59 61 61 60 57 58 61 63 64 64 62 60 59 59 60 60 60 61 62 63 64 64 65 65 64 65 65 68 72 75
84 82 75 65 58 55 52 51 53 54 52 54 60 63 63 60 56 56 58 61 63 62 60 59 58 59 59 58 58 59 59 59 60 60 64 67 66 66 66 68 71 74
81 78 76 72 66 61 56 54 53 54 55 57 61 63 62 61 59 56 56 57 59 60 59 59 59 60 60 58 56 57 57 56 56 57 60 62 63 64 65 68 71 73
83 82 80 74 67 56 49 54 57 55 57 59 60 63 62 59 57 54 52 53 56 59 58 57 57 57 57 55 55 55 57 57 58 59 59 60 61 63 65 68 70 71
85 82 71 60 59 46 33 48 61 57 56 59 60 61 60 55 52 50 50 55 58 57 52 50 53 54 54 54 56 57 59 59 58 58 58 58 59 61 63 67 69 69
82 74 59 51 58 46 26 41 62 59 56 59 59 59 56 50 48 49 53 59 60 54 47 48 52 52 53 55 57 59 60 58 57 57 57 57 58 60 62 66 68 68
80 69 56 53 58 43 25 38 60 62 58 59 60 58 50 44 47 53 58 60 61 54 47 49 52 51 53 55 57 59 58 57 57 57 58 58 58 60 63 65 66 66
81 71 67 69 68 54 40 42 56 62 60 61 62 56 45 43 52 61 62 61 62 57 50 51 53 52 55 59 61 61 60 60 61 61 61 61 61 63 65 65 64 61
80 76 82 84 80 76 65 54 57 64 63 63 60 50 45 49 55 60 62 63 64 58 52 53 54 54 57 62 64 65 65 67 67 67 65 63 63 66 67 66 63 61
78 80 90 88 82 85 82 71 67 66 63 64 59 50 50 53 52 54 60 65 65 59 54 55 55 55 58 61 63 65 67 69 69 67 65 63 65 68 68 68 67 66
79 80 87 84 72 71 78 81 73 62 61 66 63 63 68 64 58 59 63 66 65 60 56 55 55 55 57 59 62 65 66 65 65 65 65 65 66 66 66 68 70 73
80 78 79 76 64 59 73 83 74 62 62 60 56 64 75 74 70 69 66 65 65 61 58 56 54 55 57 59 64 67 65 63 64 67 67 65 63 61 61 64 72 79
80 79 79 76 68 67 78 82 73 66 58 48 49 61 70 74 75 72 67 65 65 62 59 56 53 54 57 61 67 69 66 64 66 67 65 62 60 60 60 64 74 80
78 80 80 76 72 75 80 78 74 68 54 47 60 73 76 77 77 72 67 66 64 61 58 55 53 55 60 65 70 71 68 67 67 66 64 63 62 63 64 69 76 78
76 74 74 75 76 79 83 80 74 67 58 60 75 82 79 76 74 70 68 67 64 60 57 55 55 58 64 71 73 72 69 67 67 66 66 66 64 64 66 72 76 75
74 69 70 76 79 79 80 76 68 64 64 68 75 77 72 69 69 70 70 68 65 61 58 57 60 64 68 72 73 71 69 68 69 70 69 66 63 64 67 72 74 75
71 68 72 79 80 78 78 73 64 64 67 67 68 70 69 69 71 72 71 69 66 63 61 64 68 68 68 69 69 69 70 70 71 70 67 64 65 67 70 72 73 75
Wind_Speed
32 30 29 28 27 27 26 24 23 22 21 19 18 17 16 15 14 13 14 15 13 11 10 10 10 9 8 8 8 7 7 7 6 6 7 7 7 7 7 8 8 8
32 31 30 29 28 27 26 24 23 22 20 19 18 17 16 15 14 14 15 15 13 11 12 11 11 10 9 9 9 8 8 8 7 7 8 9 9 9 9 9 9 10
33 32 31 30 29 28 26 24 22 21 19 18 18 17 16 15 15 15 16 15 13 12 12 12 12 11 10 10 10 9 9 9 9 9 10 11 11 11 11 10 10 11
35 34 32 30 29 28 25 23 22 20 19 18 17 17 16 15 15 16 16 15 14 13 12 13 13 13 11 11 11 11 11 11 11 11 12 12 12 12 12 12 12 12
36 34 32 30 28 27 25 24 22 20 19 17 16 16 15 15 16 16 16 15 14 13 13 14 14 13 13 12 12 13 12 12 12 12 13 13 13 13 13 13 13 13
36 34 32 29 27 26 25 23 21 20 18 17 16 16 16 16 17 17 16 15 14 13 13 13 13 13 12 12 13 13 12 12 12 13 14 14 14 14 14 14 15 15
35 34 32 29 27 25 24 22 21 19 18 17 17 17 17 18 18 17 16 15 15 14 13 13 13 13 12 12 13 13 13 13 13 14 14 14 14 14 15 16 17 17
36 34 32 29 27 25 23 21 20 19 17 18 18 18 18 19 18 17 17 17 17 16 15 14 14 14 14 14 14 15 15 15 15 15 15 15 15 15 15 16 18 19
35 34 32 30 28 26 22 20 20 19 18 19 19 18 19 18 17 18 18 18 18 18 17 16 17 17 16 16 17 17 18 18 18 18 17 17 17 17 17 17 18 20
34 33 33 32 31 27 23 21 21 20 19 21 20 19 19 18 17 18 19 19 20 19 19 19 19 19 19 18 19 19 19 19 19 19 20 20 20 19 19 18 19 20
34 36 36 33 30 26 22 22 23 22 21 21 21 20 18 17 18 19 20 21 22 21 20 20 21 21 21 20 19 18 17 16 16 17 18 19 19 19 19 19 19 20
35 32 27 23 22 21 20 22 24 23 22 21 21 20 19 18 19 20 21 23 23 22 22 22 22 22 21 20 18 15 14 13 12 14 15 15 17 17 18 19 19 19
24 19 19 20 22 21 21 25 27 25 23 22 21 20 20 21 22 23 23 23 24 23 22 22 21 21 19 17 15 13 12 11 12 13 14 14 15 16 17 18 18 19
23 24 30 33 31 28 29 29 29 28 24 22 21 22 22 23 24 25 24 23 24 22 20 19 18 18 17 15 14 13 12 12 12 13 13 14 14 15 16 17 18 18
36 40 40 37 34 34 34 32 32 30 26 23 23 23 23 24 26 27 25 23 23 21 19 18 17 18 17 16 16 15 14 14 13 14 14 14 15 16 17 18 18 18
42 42 39 38 37 37 36 34 32 30 27 25 24 23 23 24 27 28 26 24 23 20 19 19 18 18 17 16 16 16 15 15 15 16 17 17 17 17 18 19 18 18
39 38 36 35 33 33 33 31 30 30 29 27 25 24 26 28 28 27 26 25 23 21 20 20 19 18 16 14 14 14 15 16 17 18 19 19 19 19 18 19 18 17
38 34 30 30 29 29 30 30 30 29 28 27 25 26 29 30 29 27 27 26 24 23 23 22 20 18 16 15 15 15 16 18 19 19 19 19 19 19 19 19 19 18
35 30 29 28 26 23 26 28 28 28 27 27 27 28 30 30 30 29 28 27 25 24 25 24 21 19 17 17 17 18 18 19 20 19 18 18 17 18 19 19 20 21
29 28 29 29 27 26 26 25 24 26 26 26 27 30 31 30 30 29 28 27 27 26 26 25 23 21 19 19 19 19 18 17 17 17 16 16 16 17 18 19 21 21
27 28 29 29 32 33 28 24 24 27 26 26 30 31 30 29 29 29 28 28 28 26 26 26 24 22 20 20 19 18 16 15 14 14 14 15 15 16 18 19 20 19
30 30 29 30 31 32 29 27 29 31 30 31 31 30 29 28 28 28 28 28 28 27 27 26 25 22 21 20 18 16 15 14 13 14 14 15 16 17 17 17 17 16
33 33 32 32 34 34 33 33 34 34 34 32 28 26 26 26 26 26 26 26 27 27 27 26 24 22 19 18 17 15 15 14 14 15 15 16 16 16 17 16 14 14
34 32 32 34 36 36 35 35 35 34 32 29 25 23 25 25 25 25 25 26 28 28 26 25 23 20 17 16 15 14 14 14 15 15 15 15 16 15 15 15 13 13
34 32 32 35 37 36 36 36 35 31 28 26 24 24 24 24 24 24 26 28 29 28 26 23 21 17 14 13 13 13 14 14 15 15 15 14 14 14 14 14 13 13
35 34 35 37 37 36 36 35 33 30 27 25 24 24 24 24 24 24 26 28 28 27 24 21 18 15 12 11 12 13 15 15 14 14 14 13 13 13 13 14 14 14
Wind_Direction
220 220 220 220 220 219 214 211 211 211 211 213 212 212 212 214 218 220 214 210 215 229 238 239 237 241 241 236 240 246 248 248 250 259 266 273 280 281 275 270 268 270
219 220 221 221 219 217 214 214 215 213 214 216 215 213 214 216 219 215 209 210 222 235 238 237 238 246 245 238 240 245 249 254 256 261 268 273 281 284 282 278 273 274
219 219 220 221 219 215 213 214 216 218 219 216 213 213 214 216 216 212 211 218 230 235 233 234 239 246 244 235 237 244 252 259 261 266 271 274 279 283 285 285 279 275
218 219 220 221 219 216 214 215 215 217 218 214 213 214 216 218 216 214 217 223 228 229 230 236 243 247 241 233 237 245 250 256 259 263 267 270 274 279 283 284 280 277
218 218 219 220 218 215 215 216 215 214 214 214 214 216 218 217 215 214 216 219 224 228 231 239 245 244 240 237 240 245 250 256 260 261 264 266 270 274 279 281 278 276
216 216 217 217 214 213 215 216 215 213 215 215 214 217 218 215 213 214 215 218 225 229 231 234 237 237 237 238 241 247 252 258 262 265 266 267 269 271 274 276 275 274
214 214 214 213 210 211 215 215 214 215 218 218 215 217 217 213 214 216 220 225 229 231 230 230 233 235 237 240 244 248 252 256 261 263 265 267 271 274 274 274 274 273
212 210 209 208 207 210 213 214 215 217 219 218 217 218 216 214 217 222 228 231 233 235 235 236 240 244 246 249 252 254 255 257 259 261 263 267 271 276 278 277 276 274
208 206 206 206 205 206 209 214 219 221 220 219 218 218 218 218 223 230 234 236 238 240 241 243 248 251 254 258 261 263 264 263 264 264 266 269 271 275 278 280 279 277
203 202 204 204 201 201 204 211 219 223 222 221 220 221 223 225 231 237 239 242 244 245 246 249 253 255 259 264 267 271 271 271 272 270 269 270 271 274 279 281 282 281
199 201 203 202 199 199 203 210 217 222 223 221 222 224 226 230 235 238 242 246 247 248 251 253 257 260 263 266 269 271 271 271 272 271 271 270 270 274 278 281 284 284
198 196 192 190 192 194 204 217 220 222 223 222 223 226 228 232 237 239 242 247 249 251 254 257 261 263 265 266 265 262 260 263 266 268 269 270 270 272 276 280 283 284
182 171 170 184 195 196 205 221 225 224 224 223 225 228 229 232 236 236 237 244 250 253 257 260 262 261 260 260 255 250 254 262 265 266 269 271 273 274 276 280 282 283
163 180 193 197 198 196 202 215 223 224 224 224 226 229 230 233 235 233 234 242 252 256 259 260 257 254 255 255 251 251 260 269 270 272 276 277 278 279 280 281 283 285
183 196 199 197 194 195 201 212 220 221 221 223 226 229 232 234 235 234 235 244 252 256 257 254 250 253 258 258 256 257 264 271 273 275 279 280 280 282 283 283 285 287
193 196 196 194 193 195 202 210 217 218 218 222 225 228 230 232 234 235 237 243 251 253 251 247 249 256 260 259 259 262 266 269 271 273 275 276 278 279 281 284 287 288
193 193 190 190 194 198 203 210 217 217 216 220 223 225 227 231 236 239 241 245 251 251 246 244 250 257 257 256 258 262 265 268 270 272 273 273 274 275 277 283 287 288
193 189 181 185 196 204 209 214 218 218 218 219 222 225 230 235 240 243 246 249 252 248 243 244 251 256 254 254 258 261 264 267 267 268 269 270 271 272 275 281 285 285
191 182 173 182 196 207 218 220 216 216 221 222 223 229 235 240 244 246 250 253 251 245 243 246 252 256 256 258 261 264 266 267 265 264 264 266 267 270 276 280 283 282
184 174 170 181 192 204 222 228 217 216 224 225 228 235 238 240 243 247 252 254 249 244 245 248 253 258 261 263 265 268 270 268 266 261 259 262 268 273 278 281 282 281
175 166 170 186 195 200 216 229 223 221 224 222 227 236 239 241 245 248 252 252 248 245 245 248 254 259 262 266 268 269 270 269 266 260 259 265 273 278 281 282 282 279
172 167 178 194 197 199 212 223 223 222 222 220 224 234 240 244 247 248 250 251 247 244 243 247 253 258 261 266 269 267 267 266 263 261 265 271 277 282 284 285 283 278
174 173 183 194 197 200 209 215 217 218 219 219 224 232 237 242 245 247 250 250 246 243 242 245 251 256 260 266 267 264 262 262 260 262 268 273 278 283 286 286 284 281
175 177 186 195 199 203 208 212 216 217 218 220 226 235 239 243 247 250 251 249 245 242 241 244 250 255 258 263 264 262 260 258 260 264 268 274 279 284 287 287 285 287
177 183 192 197 201 205 209 212 216 220 222 225 231 240 246 249 251 251 251 248 244 241 241 243 247 251 255 261 265 263 259 258 261 265 270 276 282 285 287 287 287 292
186 192 196 198 200 206 209 211 214 220 224 229 236 243 249 253 253 250 248 246 242 240 240 241 243 246 251 259 261 259 259 261 263 267 272 276 281 284 286 287 291 296